sat.trackr.live / text

‹ back to catalog

COSMOS 2515

NORAD 41394 · 2016-020A

PAYLOAD ACTIVE UNKNOWN

§ Identity

Operator
Country
CIS
Launch date
2016-03-24
Launch site
PLMSC
Launch vehicle
Mass (kg)
RCS (m²)
5.62

External: N2YO · Heavens-Above · Gunter

§ Orbital elements

Epoch: 2026-09-20T04:48:21.803040Z

Period
95.48 min
Inclination
97.9753°
Eccentricity
0.0023164
Mean motion
15.08193025 rev/d
Perigee alt
525.7 km
Apogee alt
557.8 km
Semi-major
6,919.9 km
B*
1.0753e-4
RAAN
282.2661°
Arg perigee
344.5593°
Mean anomaly
15.4925°
Rev number
57,473

§ Raw data

COSMOS 25151 41394U 16020A   26263.20025235  .00001602  00000+0  10753-3 0  99952 41394  97.9753 282.2661 0023164 344.5593  15.4925 15.08193025574735

JSON: /api/v1/satellites/41394 · /tle

For live sub-satellite position, see the globe view (requires WebGL).

§ Visibility from observer

Set your observer location to see the next 7 days of passes ≥ 10°. The values pass through the URL so the page stays shareable.

No JS? Fill the form by hand. The geolocation button needs JavaScript.